Location: Caracas
(10.5033°N, 66.8422°W)
Time: 15:20:27
(UTC-04:00)

Vanguard 1 Rocket - All Passes

Search period start: 21 February 2018 00:00
Search period end: 03 March 2018 00:00
Orbit: 655 x 4222 km, 34.3° (Epoch: 20 February)

Date Brightness Start Highest point End Pass type
(mag) Time Alt. Az. Time Alt. Az. Time Alt. Az.
21 Feb - 00:25:20 10° WNW 00:45:51 40° N 01:09:11 10° NE visible
21 Feb - 03:01:53 10° NW 03:26:09 42° NNE 03:43:52 10° E visible
21 Feb - 05:37:38 10° NW 06:00:59 73° NNE 06:13:13 10° ESE visible
21 Feb - 08:14:14 10° WNW 08:28:39 37° SW 08:36:43 10° SSE daylight
21 Feb - 18:19:16 10° S 18:27:06 30° SE 18:40:18 10° ENE daylight
21 Feb - 20:42:03 10° WSW 20:54:17 83° NW 21:17:47 10° NE visible
21 Feb - 23:10:45 10° W 23:28:25 45° NNW 23:53:06 10° NE visible
22 Feb - 01:45:31 10° WNW 02:08:30 38° N 02:29:08 10° ENE visible
22 Feb - 04:21:25 10° NW 04:46:22 57° NNE 05:01:19 10° E visible
22 Feb - 06:57:00 10° WNW 07:17:02 65° SW 07:27:13 10° SE daylight
22 Feb - 09:40:59 10° WSW 09:42:28 10° SW 09:43:51 10° SW daylight
22 Feb - 17:13:00 10° SSE 17:16:02 12° SE 17:19:40 10° ESE daylight
22 Feb - 19:31:26 10° SW 19:41:24 70° SE 20:01:18 10° ENE visible
22 Feb - 21:57:33 10° W 22:12:16 54° NNW 22:36:50 10° NE visible
23 Feb - 00:29:47 10° WNW 00:50:20 38° N 01:13:15 10° ENE visible
23 Feb - 03:05:20 10° NW 03:30:17 47° NNE 03:48:11 10° E visible
23 Feb - 05:40:25 10° NW 06:04:11 87° NE 06:16:41 10° SE visible
23 Feb - 08:18:28 10° W 08:31:18 27° SW 08:39:08 10° S daylight
23 Feb - 18:21:47 10° SSW 18:29:45 40° SE 18:44:21 10° ENE daylight
23 Feb - 20:45:35 10° WSW 20:57:35 69° NNW 21:20:32 10° NE visible
23 Feb - 23:15:07 10° WNW 23:32:38 40° N 23:56:38 10° NE visible
24 Feb - 01:49:30 10° NW 02:12:56 41° N 02:33:36 10° ENE visible
24 Feb - 04:24:16 10° NW 04:49:54 67° NNE 05:05:06 10° ESE visible
24 Feb - 07:00:18 10° WNW 07:19:44 51° SW 07:30:07 10° SSE daylight
24 Feb - 17:13:40 10° S 17:18:51 18° SE 17:26:12 10° E daylight
24 Feb - 19:34:37 10° SW 19:44:22 86° SE 20:04:16 10° NE visible
24 Feb - 22:01:38 10° W 22:16:09 46° NNW 22:39:51 10° NE visible
25 Feb - 00:34:08 10° WNW 00:54:52 38° N 01:17:35 10° ENE visible
25 Feb - 03:08:31 10° NW 03:34:10 53° NNE 03:52:20 10° E visible
25 Feb - 05:43:17 10° WNW 06:07:09 78° SW 06:19:55 10° SE visible
25 Feb - 08:23:31 10° W 08:33:58 20° SW 08:41:05 10° S daylight
25 Feb - 18:24:35 10° SSW 18:32:30 54° SE 18:47:55 10° ENE daylight
25 Feb - 20:49:21 10° WSW 21:01:09 57° NNW 21:23:17 10° NE visible
25 Feb - 23:19:32 10° WNW 23:37:01 38° N 00:00:30 10° ENE visible
26 Feb - 01:53:09 10° NW 02:17:10 44° NNE 02:38:02 10° E visible
26 Feb - 04:27:04 10° NW 04:53:11 78° NNE 05:08:40 10° ESE visible
26 Feb - 07:03:59 10° WNW 07:22:20 40° SW 07:32:46 10° SSE daylight
26 Feb - 17:15:39 10° S 17:21:35 26° SE 17:31:05 10° E daylight
26 Feb - 19:38:03 10° WSW 19:47:36 76° NNW 20:07:04 10° NE visible
26 Feb - 22:05:55 10° WNW 22:20:16 41° NNW 22:43:08 10° NE visible
27 Feb - 00:38:14 10° NW 00:59:21 39° N 01:22:05 10° ENE visible
27 Feb - 03:11:32 10° NW 03:37:47 61° NNE 03:56:15 10° ESE visible
27 Feb - 05:46:19 10° WNW 06:09:53 64° SW 06:22:56 10° SE visible
27 Feb - 08:29:58 10° WSW 08:36:48 14° SW 08:42:07 10° SSW daylight
27 Feb - 18:27:39 10° SW 18:35:24 71° SE 18:51:08 10° ENE daylight
27 Feb - 20:53:20 10° W 21:04:57 47° NNW 21:26:08 10° NE visible
27 Feb - 23:23:54 10° WNW 23:41:31 36° N 00:04:43 10° ENE visible
28 Feb - 01:56:33 10° NW 02:21:09 49° NNE 02:42:20 10° E visible
28 Feb - 04:29:54 10° NW 04:56:11 89° SW 05:12:00 10° SE visible
28 Feb - 07:08:12 10° WNW 07:24:54 31° SW 07:35:09 10° S daylight
28 Feb - 17:18:10 10° SSW 17:24:20 37° SE 17:35:11 10° ENE daylight
28 Feb - 19:41:43 10° WSW 19:51:04 61° NNW 20:09:48 10° NE visible
28 Feb - 22:10:17 10° WNW 22:24:34 37° N 22:46:44 10° NE visible
01 Mar - 00:42:06 10° NW 01:03:40 41° NNE 01:26:38 10° E visible
01 Mar - 03:14:26 10° NW 03:41:06 71° NNE 03:59:55 10° ESE visible
01 Mar - 05:49:39 10° WNW 06:12:28 52° SW 06:25:44 10° SSE visible
01 Mar - 16:10:27 10° SSE 16:13:49 14° SE 16:18:06 10° E daylight
01 Mar - 18:30:57 10° SW 18:38:32 88° NW 18:54:07 10° NE visible
01 Mar - 20:57:31 10° W 21:08:59 40° NNW 21:29:09 10° NE visible
01 Mar - 23:28:07 10° NW 23:46:00 36° N 00:09:11 10° ENE visible
02 Mar - 01:59:44 10° NW 02:24:49 56° NNE 02:46:24 10° E visible
02 Mar - 04:32:50 10° WNW 04:58:58 76° SW 05:15:07 10° SE visible
02 Mar - 07:13:11 10° W 07:27:34 23° SW 07:37:11 10° S daylight
02 Mar - 17:21:01 10° SSW 17:27:12 53° SE 17:38:47 10° ENE daylight
02 Mar - 19:45:36 10° W 19:54:48 49° NNW 20:12:33 10° NE visible
02 Mar - 22:14:41 10° WNW 22:28:59 34° N 22:50:41 10° ENE visible
